Regional Weather Roundup
Issued by NWS Newport/Morehead, NC

Current Version | Previous Version | Text Only | Print | Product List | Glossary On
Versions: 1 2 3 4 5 6 7 8 9 10 11 12 13 14 15 16 17 18 19 20 21 22 23 24 25 26 27 28 29 30 31 32 33 34 35 36 37 38 39 40 41 42 43 44 45 46 47 48 49 50
000
ASUS42 KMHX 041822
RWRMHX
WEATHER ROUNDUP FOR EASTERN NORTH CAROLINA
NATIONAL WEATHER SERVICE NEWPORT/MOREHEAD CITY NC
200 PM EDT MON MAY 04 2015

NOTE: "FAIR" INDICATES FEW OR NO CLOUDS BELOW 12,000 FEET
WITH NO SIGNIFICANT WEATHER AND/OR OBSTRUCTIONS TO VISIBILITY

NCZ015>017-031-032-045>047-102-103-041900-
NORTH COAST

CITY           SKY/WX    TMP DP  RH WIND       PRES   REMARKS
EDENTON        SUNNY     79  47  32 SW8       30.31S
ELIZABETH CITY SUNNY     80  45  28 S12       30.31F
KITTY HAWK     CLEAR     78  51  38 S5        30.31S
MANTEO         PTSUNNY   74  53  46 S10       30.32F

$$

NCZ045>047-081-094-103-104-041900-
CENTRAL COAST

CITY           SKY/WX    TMP DP  RH WIND       PRES   REMARKS
FRISCO         SUNNY     70  56  61 SW6       30.35S
SWANQUARTER      N/A     79 N/A N/A S7        30.30S

$$

NCZ095-097-098-100-101-041900-
SOUTHERN COAST

CITY           SKY/WX    TMP DP  RH WIND       PRES   REMARKS
BEAUFORT       SUNNY     75  52  44 S10       30.35S
CEDAR ISLAND     N/A     79 N/A N/A S10G22    30.39R
JACKSONVILLE   SUNNY     79  45  29 SE9       30.33S
PINEY ISLAND   MOCLDY   N/A N/A N/A S7G18     30.33S
WILMINGTON     SUNNY     79  54  41 SE12      30.33S


$$

NCZ011>013-027>030-043-044-078>080-089-090>093-098-041900-
COASTAL PLAIN

CITY           SKY/WX    TMP DP  RH WIND       PRES   REMARKS
AHOSKIE        SUNNY     80  50  35 S8        30.30S
CLINTON        PTSUNNY   78  51  37 CALM      30.32F
ELIZABETHTOWN  MOSUNNY   80  49  33 S7        30.32F
GOLDSBORO      SUNNY     81  48  31 VRB7      30.29F
GREENVILLE     SUNNY     81  46  30 SW9       30.32S
HAVELOCK       SUNNY     80  44  27 S8        30.34S
KENANSVILLE    MOSUNNY   79  44  28 SW7       30.33F
KINSTON        MOSUNNY   81  43  26 S8        30.32F
NEW BERN       PTSUNNY   79  46  31 SE9       30.33F
RICHLANDS      CLOUDY    79  46  31 S13       30.32F
ROCKY MOUNT    SUNNY     81  51  35 SW12      30.30F
WASHINGTON     MOSUNNY   78  46  31 CALM      30.32S
WHITEVILLE     PTSUNNY   79  50  36 CALM      30.32S

$$

AMZ130-135-150-152-154-156-158-170-250-252-270-ANZ085-086-088-633-658-670-041900-
MARINE OBSERVATIONS

STATION/POSITION TIME  TEMP    WIND        PRES    WAVE   SWELL
                       AIR SEA DIR/SP/G            HT/PER HT/PER
                 (UTC) (F)     (DEG/KT/KT) (MB)    (FT/S) (FT/S)
CHESAPEAKE LIGHT NOT AVBL
64 E VA BEACH    NOT AVBL
DUCK             NOT AVBL
2 E DUCK         NOT AVBL
OREGON INLET     NOT AVBL
13E OREGON INLT  NOT AVBL
HATTERAS CG      NOT AVBL
DIAMOND BUOY     NOT AVBL
CAPE LOOKOUT     NOT AVBL
BEAUFORT LAB     NOT AVBL
27 SE WRIGHTSVLE NOT AVBL
5 SE WRIGHTSVLE  NOT AVBL
225 S CAPE HAT   NOT AVBL
41 SE CHARLESTON NOT AVBL

$$



USA.gov is the U.S. government's official web portal to all federal, state and local government web resources and services.